| time (UTC) | temp F | wind direction | speed MPH | gust MPH | rain 1hr in | rain 24hr in | rain mn in | humidity % | barometer mb |
| 20260502163503 | 50 | 356 | 5.0 | 15.0 | 0.00 | 0.00 | 0.00 | 50 | 1015.1 |
| 20260502162502 | 50 | 10 | 9.0 | 17.0 | 0.00 | 0.00 | 0.00 | 50 | 1015.1 |
| 20260502161503 | 50 | 357 | 8.0 | 13.0 | 0.00 | 0.00 | 0.00 | 53 | 1015.2 |
| 20260502161003 | 49 | 308 | 5.0 | 15.0 | 0.00 | 0.00 | 0.00 | 56 | 1015.3 |
| 20260502160502 | 48 | 341 | 9.0 | 20.0 | 0.00 | 0.00 | 0.00 | 55 | 1015.4 |
| 20260502152004 | 46 | 324 | 6.0 | 14.0 | 0.00 | 0.00 | 0.00 | 59 | 1015.5 |
| 20260502151503 | 46 | 332 | 8.0 | 14.0 | 0.00 | 0.00 | 0.00 | 61 | 1015.5 |
| 20260502151003 | 45 | 294 | 8.0 | 12.0 | 0.00 | 0.00 | 0.00 | 60 | 1015.5 |
| 20260502150503 | 46 | 348 | 8.0 | 13.0 | 0.00 | 0.00 | 0.00 | 61 | 1015.5 |
| 20260502130502 | 42 | 8 | 8.0 | 14.0 | 0.00 | 0.00 | 0.00 | 64 | 1015.4 |
| 20260502123503 | 42 | 12 | 10.0 | 16.0 | 0.00 | 0.00 | 0.00 | 65 | 1014.9 |
| 20260502123003 | 42 | 359 | 11.0 | 16.0 | 0.00 | 0.00 | 0.00 | 63 | 1015.1 |
| 20260502122503 | 42 | 359 | 8.0 | 16.0 | 0.00 | 0.00 | 0.00 | 62 | 1015.1 |
| 20260502122002 | 42 | 354 | 12.0 | 16.0 | 0.00 | 0.00 | 0.00 | 62 | 1015.1 |
| 20260502121503 | 42 | 355 | 12.0 | 16.0 | 0.00 | 0.00 | 0.00 | 62 | 1015.2 |
| 20260502121002 | 42 | 356 | 12.0 | 16.0 | 0.00 | 0.00 | 0.00 | 62 | 1015.2 |
| 20260502120503 | 42 | 337 | 7.0 | 15.0 | 0.00 | 0.00 | 0.00 | 63 | 1015.2 |
| 20260502115503 | 42 | 350 | 5.0 | 14.0 | 0.00 | 0.00 | 0.00 | 64 | 1015.1 |
| 20260502115002 | 42 | 348 | 8.0 | 14.0 | 0.00 | 0.00 | 0.00 | 64 | 1015.0 |
| 20260502114003 | 42 | 1 | 7.0 | 14.0 | 0.00 | 0.00 | 0.00 | 64 | 1015.0 |
| 20260502113502 | 42 | 359 | 10.0 | 14.0 | 0.00 | 0.00 | 0.00 | 63 | 1014.9 |
| 20260502113003 | 42 | 331 | 7.0 | 14.0 | 0.00 | 0.00 | 0.00 | 64 | 1014.8 |
| 20260502112503 | 42 | 10 | 10.0 | 14.0 | 0.00 | 0.00 | 0.00 | 63 | 1014.7 |
| 20260502112003 | 42 | 351 | 8.0 | 14.0 | 0.00 | 0.00 | 0.00 | 63 | 1014.8 |
| 20260502111002 | 42 | 20 | 8.0 | 13.0 | 0.00 | 0.00 | 0.00 | 62 | 1014.8 |
| 20260502110502 | 42 | 9 | 9.0 | 13.0 | 0.00 | 0.00 | 0.00 | 63 | 1014.7 |
| 20260502110003 | 42 | 348 | 5.0 | 12.0 | 0.00 | 0.00 | 0.00 | 65 | 1014.9 |
| 20260502105503 | 42 | 42 | 5.0 | 12.0 | 0.00 | 0.00 | 0.00 | 64 | 1014.7 |
| 20260502105003 | 41 | 8 | 6.0 | 12.0 | 0.00 | 0.00 | 0.00 | 63 | 1014.7 |
| 20260502104503 | 41 | 11 | 7.0 | 13.0 | 0.00 | 0.00 | 0.00 | 65 | 1014.7 |
| 20260502104002 | 41 | 356 | 9.0 | 13.0 | 0.00 | 0.00 | 0.00 | 64 | 1014.7 |
| 20260502103503 | 41 | 338 | 5.0 | 13.0 | 0.00 | 0.00 | 0.00 | 63 | 1014.8 |
| 20260502103003 | 42 | 328 | 5.0 | 9.0 | 0.00 | 0.00 | 0.00 | 63 | 1014.7 |
| 20260502102502 | 42 | 343 | 5.0 | 14.0 | 0.00 | 0.00 | 0.00 | 62 | 1014.9 |
| 20260502102003 | 42 | 341 | 4.0 | 14.0 | 0.00 | 0.00 | 0.00 | 62 | 1015.0 |
| 20260502101503 | 42 | 323 | 5.0 | 12.0 | 0.00 | 0.00 | 0.00 | 62 | 1014.9 |
| 20260502101003 | 42 | 2 | 6.0 | 13.0 | 0.00 | 0.00 | 0.00 | 63 | 1014.9 |
| 20260502100502 | 42 | 311 | 10.0 | 13.0 | 0.00 | 0.00 | 0.00 | 61 | 1014.9 |
| 20260502090503 | 43 | 10 | 5.0 | 14.0 | 0.00 | 0.00 | 0.00 | 69 | 1014.8 |
| 20260502071505 | 45 | 15 | 2.0 | 13.0 | 0.00 | 0.00 | 0.00 | 78 | 1014.6 |
| 20260502071003 | 45 | 20 | 3.0 | 14.0 | 0.00 | 0.00 | 0.00 | 77 | 1014.5 |
| 20260502070503 | 45 | 57 | 9.0 | 14.0 | 0.00 | 0.00 | 0.00 | 77 | 1014.6 |
| 20260502065503 | 45 | 52 | 2.0 | 12.0 | 0.00 | 0.00 | 0.00 | 77 | 1014.7 |
| 20260502065002 | 45 | 74 | 3.0 | 14.0 | 0.00 | 0.00 | 0.00 | 76 | 1014.6 |
| 20260502064503 | 45 | 53 | 5.0 | 14.0 | 0.00 | 0.00 | 0.00 | 76 | 1014.6 |
| 20260502063503 | 46 | 50 | 9.0 | 14.0 | 0.00 | 0.00 | 0.00 | 75 | 1014.6 |
| 20260502063004 | 46 | 82 | 1.0 | 12.0 | 0.00 | 0.00 | 0.00 | 75 | 1014.8 |
| 20260502062002 | 46 | 86 | 11.0 | 17.0 | 0.00 | 0.00 | 0.00 | 75 | 1014.9 |
| 20260502060503 | 46 | 30 | 4.0 | 12.0 | 0.00 | 0.00 | 0.00 | 75 | 1015.0 |
| 20260502060003 | 46 | 6 | 2.0 | 13.0 | 0.00 | 0.00 | 0.00 | 75 | 1015.1 |
| 20260502055503 | 46 | 92 | 4.0 | 13.0 | 0.00 | 0.00 | 0.00 | 74 | 1015.1 |
| 20260502055002 | 46 | 11 | 5.0 | 12.0 | 0.00 | 0.00 | 0.00 | 74 | 1015.1 |
| 20260502054503 | 47 | 82 | 1.0 | 12.0 | 0.00 | 0.00 | 0.00 | 74 | 1015.0 |
| 20260502054003 | 47 | 40 | 3.0 | 9.0 | 0.00 | 0.00 | 0.00 | 74 | 1014.8 |
| 20260502053503 | 47 | 44 | 4.0 | 13.0 | 0.00 | 0.00 | 0.00 | 74 | 1014.9 |
| 20260502053004 | 47 | 97 | 5.0 | 14.0 | 0.00 | 0.00 | 0.00 | 74 | 1015.0 |
| 20260502052003 | 47 | 82 | 5.0 | 13.0 | 0.00 | 0.00 | 0.00 | 75 | 1015.0 |
| 20260502051503 | 48 | 69 | 7.0 | 14.0 | 0.00 | 0.00 | 0.00 | 75 | 1014.9 |
| 20260502051003 | 48 | 78 | 4.0 | 14.0 | 0.00 | 0.00 | 0.00 | 76 | 1014.9 |
| 20260502050504 | 48 | 70 | 1.0 | 9.0 | 0.00 | 0.00 | 0.00 | 76 | 1014.9 |
| 20260502050003 | 48 | 346 | 3.0 | 10.0 | 0.00 | 0.00 | 0.00 | 76 | 1014.9 |
| 20260502045502 | 48 | 58 | 4.0 | 10.0 | 0.00 | 0.00 | 0.00 | 76 | 1014.9 |
| 20260502045003 | 48 | 19 | 6.0 | 9.0 | 0.00 | 0.00 | 0.00 | 77 | 1015.0 |
| 20260502044504 | 48 | 152 | 3.0 | 6.0 | 0.00 | 0.00 | 0.00 | 76 | 1015.0 |
| 20260502044003 | 48 | 0 | 0.0 | 5.0 | 0.00 | 0.00 | 0.00 | 76 | 1015.1 |
| 20260502043503 | 48 | 100 | 1.0 | 5.0 | 0.00 | 0.00 | 0.00 | 77 | 1015.0 |
| 20260502043003 | 48 | 350 | 2.0 | 10.0 | 0.00 | 0.00 | 0.00 | 76 | 1015.0 |
| 20260502042503 | 49 | 91 | 3.0 | 10.0 | 0.00 | 0.00 | 0.00 | 77 | 1014.8 |
| 20260502042003 | 49 | 74 | 3.0 | 12.0 | 0.00 | 0.00 | 0.00 | 77 | 1014.9 |
| 20260502041503 | 49 | 36 | 2.0 | 14.0 | 0.00 | 0.00 | 0.00 | 76 | 1014.8 |
| 20260502041003 | 49 | 11 | 10.0 | 14.0 | 0.00 | 0.00 | 0.00 | 76 | 1014.9 |
| 20260502040012 | 49 | 42 | 2.0 | 9.0 | 0.00 | 0.00 | 0.00 | 76 | 1014.9 |
| 20260502035504 | 49 | 166 | 0.0 | 7.0 | 0.00 | 0.00 | 0.00 | 76 | 1014.9 |
| 20260502034503 | 50 | 117 | 1.0 | 5.0 | 0.00 | 0.00 | 0.00 | 75 | 1015.0 |
| 20260502033003 | 50 | 11 | 2.0 | 15.0 | 0.00 | 0.00 | 0.00 | 74 | 1015.0 |
| 20260502032503 | 50 | 356 | 7.0 | 15.0 | 0.00 | 0.00 | 0.00 | 73 | 1014.9 |
| 20260502032003 | 50 | 355 | 2.0 | 15.0 | 0.00 | 0.00 | 0.00 | 73 | 1014.9 |
| 20260502031503 | 50 | 353 | 8.0 | 14.0 | 0.00 | 0.00 | 0.00 | 72 | 1014.8 |
| 20260502031003 | 51 | 4 | 6.0 | 13.0 | 0.00 | 0.00 | 0.00 | 72 | 1014.8 |
| 20260502030504 | 51 | 345 | 4.0 | 13.0 | 0.00 | 0.00 | 0.00 | 71 | 1014.8 |
| 20260502030003 | 51 | 317 | 8.0 | 16.0 | 0.00 | 0.00 | 0.00 | 70 | 1014.7 |
| 20260502024503 | 52 | 343 | 5.0 | 10.0 | 0.00 | 0.00 | 0.00 | 70 | 1014.8 |
| 20260502024004 | 51 | 337 | 5.0 | 10.0 | 0.00 | 0.00 | 0.00 | 71 | 1014.9 |
| 20260502023503 | 51 | 333 | 5.0 | 9.0 | 0.00 | 0.00 | 0.00 | 74 | 1014.8 |
| 20260502023003 | 51 | 220 | 1.0 | 3.0 | 0.00 | 0.00 | 0.00 | 78 | 1014.6 |
| 20260502022003 | 52 | 0 | 0.0 | 3.0 | 0.00 | 0.00 | 0.00 | 76 | 1014.3 |
| 20260502021003 | 52 | 300 | 2.0 | 5.0 | 0.00 | 0.00 | 0.00 | 76 | 1014.2 |
| 20260502020503 | 52 | 205 | 1.0 | 3.0 | 0.00 | 0.00 | 0.00 | 74 | 1013.9 |
| 20260502020004 | 52 | 206 | 2.0 | 5.0 | 0.00 | 0.00 | 0.00 | 75 | 1013.8 |
| 20260502015504 | 52 | 206 | 2.0 | 5.0 | 0.00 | 0.00 | 0.00 | 75 | 1013.7 |
| 20260502015003 | 52 | 205 | 1.0 | 5.0 | 0.00 | 0.00 | 0.00 | 74 | 1013.8 |
| 20260502014503 | 52 | 206 | 2.0 | 6.0 | 0.00 | 0.00 | 0.00 | 75 | 1013.8 |
| 20260502014003 | 52 | 204 | 4.0 | 6.0 | 0.00 | 0.00 | 0.00 | 74 | 1013.8 |
| 20260502013503 | 52 | 201 | 2.0 | 5.0 | 0.00 | 0.00 | 0.00 | 75 | 1013.8 |
| 20260502013004 | 52 | 201 | 3.0 | 5.0 | 0.00 | 0.00 | 0.00 | 75 | 1013.9 |
| 20260502012503 | 52 | 199 | 2.0 | 5.0 | 0.00 | 0.00 | 0.00 | 75 | 1013.8 |
| 20260502012003 | 52 | 198 | 2.0 | 5.0 | 0.00 | 0.00 | 0.00 | 75 | 1013.7 |
| 20260502011504 | 52 | 199 | 3.0 | 5.0 | 0.00 | 0.00 | 0.00 | 74 | 1013.6 |
| 20260502011003 | 52 | 198 | 2.0 | 5.0 | 0.00 | 0.00 | 0.00 | 74 | 1013.6 |
| 20260502010503 | 52 | 199 | 3.0 | 5.0 | 0.00 | 0.00 | 0.00 | 73 | 1013.5 |
| 20260502010003 | 52 | 200 | 2.0 | 5.0 | 0.00 | 0.00 | 0.00 | 73 | 1013.5 |
| 20260502005503 | 53 | 200 | 3.0 | 6.0 | 0.00 | 0.00 | 0.00 | 72 | 1013.4 |
| 20260502005003 | 53 | 200 | 2.0 | 8.0 | 0.00 | 0.00 | 0.00 | 71 | 1013.3 |
| 20260502004504 | 53 | 206 | 3.0 | 8.0 | 0.00 | 0.00 | 0.00 | 71 | 1013.2 |
| 20260502004003 | 53 | 203 | 3.0 | 5.0 | 0.00 | 0.00 | 0.00 | 71 | 1013.0 |
| 20260502003503 | 53 | 208 | 3.0 | 5.0 | 0.00 | 0.00 | 0.00 | 71 | 1013.1 |
| 20260502003003 | 53 | 208 | 3.0 | 5.0 | 0.00 | 0.00 | 0.00 | 70 | 1013.0 |
| 20260502002503 | 54 | 208 | 3.0 | 6.0 | 0.00 | 0.00 | 0.00 | 69 | 1012.9 |
| 20260502001503 | 54 | 210 | 4.0 | 6.0 | 0.00 | 0.00 | 0.00 | 68 | 1012.7 |
| 20260502001003 | 54 | 181 | 2.0 | 6.0 | 0.00 | 0.00 | 0.00 | 68 | 1012.7 |
| 20260502000503 | 55 | 158 | 3.0 | 6.0 | 0.00 | 0.00 | 0.00 | 66 | 1012.7 |
| 20260502000004 | 55 | 172 | 3.0 | 8.0 | 0.00 | 0.00 | 0.00 | 65 | 1012.5 |
| 20260501235503 | 56 | 163 | 3.0 | 8.0 | 0.00 | 0.00 | 0.00 | 64 | 1012.4 |
| 20260501235005 | 56 | 164 | 4.0 | 8.0 | 0.00 | 0.00 | 0.00 | 64 | 1012.2 |
| 20260501234503 | 56 | 158 | 3.0 | 8.0 | 0.00 | 0.00 | 0.00 | 63 | 1012.2 |
| 20260501234003 | 57 | 168 | 5.0 | 9.0 | 0.00 | 0.00 | 0.00 | 63 | 1012.1 |
| 20260501233503 | 57 | 169 | 4.0 | 10.0 | 0.00 | 0.00 | 0.00 | 62 | 1012.1 |
| 20260501233003 | 58 | 147 | 5.0 | 10.0 | 0.00 | 0.00 | 0.00 | 61 | 1012.1 |
| 20260501232503 | 58 | 176 | 6.0 | 9.0 | 0.00 | 0.00 | 0.00 | 59 | 1012.0 |
| 20260501232003 | 58 | 166 | 5.0 | 9.0 | 0.00 | 0.00 | 0.00 | 59 | 1012.1 |
| 20260501231503 | 59 | 198 | 5.0 | 9.0 | 0.00 | 0.00 | 0.00 | 58 | 1012.2 |
| 20260501231003 | 59 | 161 | 4.0 | 12.0 | 0.00 | 0.00 | 0.00 | 57 | 1012.1 |
| 20260501230503 | 60 | 177 | 4.0 | 12.0 | 0.00 | 0.00 | 0.00 | 56 | 1012.1 |
| 20260501225504 | 61 | 222 | 5.0 | 9.0 | 0.00 | 0.00 | 0.00 | 53 | 1012.0 |
| 20260501225003 | 60 | 197 | 5.0 | 9.0 | 0.00 | 0.00 | 0.00 | 52 | 1012.1 |
| 20260501224005 | 60 | 215 | 7.0 | 10.0 | 0.00 | 0.00 | 0.00 | 52 | 1012.1 |
| 20260501223503 | 61 | 230 | 3.0 | 7.0 | 0.00 | 0.00 | 0.00 | 53 | 1012.2 |
| 20260501223004 | 61 | 248 | 4.0 | 14.0 | 0.00 | 0.00 | 0.00 | 52 | 1012.1 |
| 20260501222004 | 61 | 253 | 4.0 | 14.0 | 0.00 | 0.00 | 0.00 | 51 | 1012.2 |
| 20260501221003 | 61 | 240 | 5.0 | 12.0 | 0.00 | 0.00 | 0.00 | 51 | 1012.3 |
| 20260501220504 | 61 | 241 | 6.0 | 15.0 | 0.00 | 0.00 | 0.00 | 49 | 1012.3 |
| 20260501220004 | 62 | 286 | 9.0 | 15.0 | 0.00 | 0.00 | 0.00 | 47 | 1012.3 |
| 20260501214504 | 62 | 163 | 3.0 | 9.0 | 0.00 | 0.00 | 0.00 | 55 | 1012.4 |
| 20260501214003 | 62 | 176 | 5.0 | 15.0 | 0.00 | 0.00 | 0.00 | 53 | 1012.5 |
| 20260501213503 | 62 | 171 | 5.0 | 15.0 | 0.00 | 0.00 | 0.00 | 52 | 1012.5 |
| 20260501213003 | 62 | 143 | 8.0 | 14.0 | 0.00 | 0.00 | 0.00 | 52 | 1012.5 |
| 20260501212504 | 62 | 172 | 4.0 | 14.0 | 0.00 | 0.00 | 0.00 | 53 | 1012.6 |
| 20260501212003 | 61 | 237 | 11.0 | 18.0 | 0.00 | 0.00 | 0.00 | 55 | 1012.5 |
| 20260501211504 | 61 | 172 | 6.0 | 18.0 | 0.00 | 0.00 | 0.00 | 53 | 1012.5 |
| 20260501211003 | 61 | 218 | 10.0 | 15.0 | 0.00 | 0.00 | 0.00 | 54 | 1012.4 |
| 20260501210502 | 62 | 210 | 6.0 | 16.0 | 0.00 | 0.00 | 0.00 | 54 | 1012.5 |
| 20260501205503 | 62 | 203 | 7.0 | 15.0 | 0.00 | 0.00 | 0.00 | 54 | 1012.6 |
| 20260501205003 | 62 | 174 | 5.0 | 17.0 | 0.00 | 0.00 | 0.00 | 55 | 1012.6 |
| 20260501204504 | 61 | 173 | 5.0 | 17.0 | 0.00 | 0.00 | 0.00 | 56 | 1012.5 |
| 20260501204004 | 60 | 168 | 9.0 | 14.0 | 0.00 | 0.00 | 0.00 | 55 | 1012.7 |
| 20260501203503 | 60 | 174 | 5.0 | 13.0 | 0.00 | 0.00 | 0.00 | 53 | 1012.7 |
| 20260501202503 | 60 | 168 | 5.0 | 13.0 | 0.00 | 0.00 | 0.00 | 55 | 1012.9 |
| 20260501202003 | 60 | 203 | 4.0 | 16.0 | 0.00 | 0.00 | 0.00 | 54 | 1012.8 |
| 20260501201503 | 60 | 146 | 7.0 | 16.0 | 0.00 | 0.00 | 0.00 | 55 | 1012.9 |
| 20260501201004 | 59 | 193 | 6.0 | 17.0 | 0.00 | 0.00 | 0.00 | 59 | 1013.0 |
| 20260501200503 | 59 | 169 | 4.0 | 17.0 | 0.00 | 0.00 | 0.00 | 55 | 1013.0 |
| 20260501200004 | 59 | 238 | 3.0 | 13.0 | 0.00 | 0.00 | 0.00 | 57 | 1013.1 |
| 20260501195503 | 59 | 168 | 4.0 | 12.0 | 0.00 | 0.00 | 0.00 | 55 | 1013.1 |
| 20260501195004 | 59 | 143 | 4.0 | 14.0 | 0.00 | 0.00 | 0.00 | 54 | 1013.2 |
| 20260501194003 | 60 | 171 | 6.0 | 17.0 | 0.00 | 0.00 | 0.00 | 52 | 1013.6 |
| 20260501193503 | 61 | 224 | 5.0 | 16.0 | 0.00 | 0.00 | 0.00 | 54 | 1013.7 |
| 20260501193003 | 61 | 147 | 6.0 | 16.0 | 0.00 | 0.00 | 0.00 | 50 | 1013.7 |
| 20260501192003 | 60 | 203 | 5.0 | 13.0 | 0.00 | 0.00 | 0.00 | 51 | 1013.9 |
| 20260501191503 | 60 | 163 | 5.0 | 14.0 | 0.00 | 0.00 | 0.00 | 50 | 1013.9 |
| 20260501191003 | 60 | 208 | 8.0 | 18.0 | 0.00 | 0.00 | 0.00 | 52 | 1014.1 |
| 20260501190003 | 60 | 161 | 9.0 | 17.0 | 0.00 | 0.00 | 0.00 | 52 | 1014.2 |
| 20260501185003 | 60 | 191 | 6.0 | 13.0 | 0.00 | 0.00 | 0.00 | 54 | 1014.4 |
| 20260501184504 | 60 | 194 | 2.0 | 13.0 | 0.00 | 0.00 | 0.00 | 50 | 1014.4 |
| 20260501183003 | 59 | 226 | 8.0 | 16.0 | 0.00 | 0.00 | 0.00 | 50 | 1014.5 |
| 20260501182503 | 59 | 164 | 11.0 | 15.0 | 0.00 | 0.00 | 0.00 | 53 | 1014.6 |
| 20260501182004 | 59 | 221 | 8.0 | 13.0 | 0.00 | 0.00 | 0.00 | 53 | 1014.7 |
| 20260501181505 | 58 | 168 | 5.0 | 17.0 | 0.00 | 0.00 | 0.00 | 53 | 1014.8 |
| 20260501180503 | 57 | 142 | 5.0 | 13.0 | 0.00 | 0.00 | 0.00 | 56 | 1014.8 |
| 20260501180004 | 57 | 194 | 7.0 | 14.0 | 0.00 | 0.00 | 0.00 | 59 | 1014.9 |
| 20260501175504 | 57 | 211 | 6.0 | 15.0 | 0.00 | 0.00 | 0.00 | 58 | 1015.0 |
| 20260501175004 | 58 | 197 | 7.0 | 15.0 | 0.00 | 0.00 | 0.00 | 58 | 1015.1 |
| 20260501174504 | 58 | 195 | 5.0 | 12.0 | 0.00 | 0.00 | 0.00 | 53 | 1015.0 |
| 20260501174003 | 58 | 172 | 2.0 | 10.0 | 0.00 | 0.00 | 0.00 | 53 | 1015.2 |
| 20260501173505 | 57 | 208 | 3.0 | 14.0 | 0.00 | 0.00 | 0.00 | 57 | 1015.2 |
| 20260501173004 | 57 | 224 | 8.0 | 14.0 | 0.00 | 0.00 | 0.00 | 54 | 1015.2 |
| 20260501172503 | 56 | 153 | 6.0 | 16.0 | 0.00 | 0.00 | 0.00 | 60 | 1015.4 |
| 20260501172004 | 56 | 129 | 7.0 | 16.0 | 0.00 | 0.00 | 0.00 | 56 | 1015.4 |
| 20260501171504 | 56 | 172 | 7.0 | 14.0 | 0.00 | 0.00 | 0.00 | 59 | 1015.4 |